La Junta, CO

3:24 AM MDT on October 18, 2017 (GMT -0600)
La Junta Municipal

Weather History for KLHX - November, 2013

Change the Weather History Date:

Friday, November 29, 2013

  Actual Average Record
Temperature  
Mean Temperature 42 °F 34 °F  
Max Temperature 64 °F 48 °F 72 °F (1945)
Min Temperature 20 °F 21 °F -3 °F (1976)
Degree Days  
Heating Degree Days 23 31  
Month to date heating degree days 644 691  
Since 1 July heating degree days 1016 1113  
Cooling Degree Days 0 0  
Month to date cooling degree days 0 0  
Year to date cooling degree days 1663 1226  
Moisture  
Dew Point 22 °F    
Average Humidity 60    
Maximum Humidity 100    
Minimum Humidity 19    
Precipitation  
Precipitation 0.00 in 0.01 in 0.12 in (1991)
Month to date precipitation 0.05 0.37  
Year to date precipitation 5.03  
Sea Level Pressure  
Sea Level Pressure 30.16 in    
Wind  
Wind Speed 7 mph (West)    
Max Wind Speed 20 mph    
Max Gust Speed 23 mph    
Visibility 8 miles    
Events      
T = Trace of Precipitation, MM = Missing Value Source: NWS Daily Summary

Daily Weather History Graph

Daily Weather History Graph

Search for Another Location

Airport or City:

Trip Planner

Search our weather history database for the weather conditions in past years. The results will help you decide how hot, cold, wet, or windy it might be!

Date:

Astronomy

Nov. 29, 2013 Rise Set
Actual Time 6:49 AM MST 4:35 PM MST
Civil Twilight 6:20 AM MST 5:04 PM MST
Nautical Twilight 5:48 AM MST 5:36 PM MST
Astronomical Twilight 5:16 AM MST 6:08 PM MST
Moon 3:00 AM MST (11/29) 2:18 PM MST (11/29)
Length of Visible Light 10h 43m
Length of Day
9h 45m
Waning Crescent, 13% of the Moon is Illuminated
Nov 29
Waning Crescent
Dec 2
New
Dec 9
First Quarter
Dec 17
Full
Dec 25
Last Quarter

Hourly Weather History & Observations

Time (MST) Temp. Windchill Dew Point Humidity Pressure Visibility Wind Dir Wind Speed Gust Speed Precip Events Conditions
12:53 AM 26.1 °F - 24.1 °F 92% 30.22 in 10.0 mi Calm Calm - N/A   Clear
1:53 AM 23.0 °F 18.4 °F 21.9 °F 96% 30.21 in 10.0 mi WNW 3.5 mph - N/A   Clear
2:53 AM 23.0 °F 17.0 °F 21.0 °F 92% 30.20 in 9.0 mi West 4.6 mph - N/A   Clear
3:37 AM 23.0 °F 15.8 °F 19.4 °F 86% 30.16 in 10.0 mi West 5.8 mph - N/A   Partly Cloudy
3:51 AM 23.0 °F - 21.2 °F 93% 30.16 in 10.0 mi Calm Calm - N/A   Mostly Cloudy
3:53 AM 23.0 °F - 21.0 °F 92% 30.20 in 10.0 mi Calm Calm - N/A   Mostly Cloudy
4:14 AM 23.0 °F 17.0 °F 21.2 °F 93% 30.16 in 10.0 mi WSW 4.6 mph - N/A   Scattered Clouds
4:53 AM 21.9 °F 13.4 °F 21.0 °F 96% 30.20 in 10.0 mi West 6.9 mph - N/A   Mostly Cloudy
5:06 AM 21.2 °F 14.9 °F 21.2 °F 100% 30.14 in 1.8 mi West 4.6 mph - N/A   Overcast
5:09 AM 21.2 °F 14.9 °F 21.2 °F 100% 30.14 in 0.8 mi West 4.6 mph - N/A   Overcast
5:41 AM 21.2 °F 14.9 °F 21.2 °F 100% 30.14 in 1.2 mi WNW 4.6 mph - N/A   Mostly Cloudy
5:44 AM 21.2 °F 16.4 °F 19.4 °F 93% 30.15 in 4.0 mi WNW 3.5 mph - N/A   Mostly Cloudy
5:53 AM 21.9 °F 15.7 °F 19.0 °F 89% 30.21 in 10.0 mi West 4.6 mph - N/A   Scattered Clouds
6:43 AM 21.2 °F 12.6 °F 19.4 °F 93% 30.15 in 1.8 mi West 6.9 mph - N/A   Mostly Cloudy
6:53 AM 21.0 °F 13.4 °F 19.0 °F 92% 30.22 in 3.0 mi West 5.8 mph - N/A   Mostly Cloudy
7:03 AM 21.2 °F 11.7 °F 19.4 °F 93% 30.15 in 10.0 mi West 8.1 mph - N/A   Scattered Clouds
7:53 AM 24.1 °F 14.4 °F 21.9 °F 91% 30.21 in 10.0 mi West 9.2 mph - N/A   Clear
8:53 AM 28.9 °F 21.1 °F 25.0 °F 85% 30.20 in 10.0 mi West 8.1 mph - N/A   Clear
9:53 AM 37.0 °F 31.0 °F 28.9 °F 73% 30.18 in 10.0 mi WSW 8.1 mph - N/A   Clear
10:53 AM 46.9 °F - 27.0 °F 46% 30.13 in 10.0 mi WNW 11.5 mph - N/A   Clear
11:53 AM 55.0 °F - 24.1 °F 30% 30.09 in 10.0 mi West 17.3 mph - N/A   Clear
12:53 PM 60.1 °F - 23.0 °F 24% 30.06 in 10.0 mi West 16.1 mph - N/A   Clear
1:53 PM 63.0 °F - 21.0 °F 20% 30.06 in 10.0 mi WSW 10.4 mph - N/A   Clear
2:53 PM 62.1 °F - 19.0 °F 19% 30.06 in 10.0 mi Calm Calm - N/A   Clear
3:53 PM 57.0 °F - 24.1 °F 28% 30.09 in 10.0 mi SW 6.9 mph - N/A   Clear
4:53 PM 48.0 °F - 27.0 °F 44% 30.12 in 10.0 mi West 9.2 mph - N/A   Clear
5:53 PM 45.0 °F 39.7 °F 27.0 °F 49% 30.15 in 10.0 mi SW 10.4 mph - N/A   Clear
6:53 PM 42.1 °F 37.1 °F 26.1 °F 53% 30.17 in 10.0 mi SSW 8.1 mph - N/A   Clear
7:53 PM 41.0 °F 37.1 °F 24.1 °F 51% 30.18 in 10.0 mi SW 5.8 mph - N/A   Clear
8:53 PM 36.0 °F - 24.1 °F 62% 30.19 in 10.0 mi Calm Calm - N/A   Clear
9:53 PM 35.1 °F 28.6 °F 23.0 °F 61% 30.17 in 10.0 mi SW 8.1 mph - N/A   Clear
10:53 PM 32.0 °F 25.6 °F 23.0 °F 69% 30.15 in 10.0 mi WSW 6.9 mph - N/A   Clear
11:53 PM 35.1 °F 30.1 °F 23.0 °F 61% 30.12 in 10.0 mi WSW 5.8 mph - N/A   Clear